SCP
6 5 5 4 4 4 4 4 4 5 4 4 4 3 3 2 2 3 3 3 4 4 3 3 2 2 2 2 2 2 2 2 2 2 2 2 3 3 3 2 2 2 2
6 5 6 6 6 5 5 4 5 5 5 4 4 3 3 3 3 3 4 4 4 4 3 3 3 3 3 3 3 2 3 3 2 2 2 2 3 3 3 3 3 2 2
5 5 6 7 7 6 5 5 5 5 5 4 4 4 4 3 4 4 5 6 6 4 3 3 3 3 3 3 3 3 3 3 3 2 2 2 2 3 3 3 3 3 3
4 4 6 7 7 6 5 5 5 5 4 5 5 5 5 5 6 7 7 8 7 5 3 3 3 4 4 3 3 3 4 4 4 3 2 2 2 2 3 3 3 3 3
3 3 4 6 7 6 5 4 4 5 5 5 7 8 8 8 8 8 8 8 8 6 4 3 3 3 3 3 3 3 3 4 4 3 3 2 2 3 3 3 2 3 3
3 3 4 5 7 7 6 5 5 5 6 7 9 10 10 9 7 6 7 8 8 6 5 4 3 2 2 2 2 2 2 2 3 3 3 3 3 3 4 3 3 3 3
4 5 5 6 7 7 6 6 7 7 8 9 11 12 11 8 4 3 4 6 6 5 4 3 3 2 2 2 2 2 2 2 2 3 3 3 3 3 4 4 4 4 4
6 6 6 7 8 8 7 7 8 8 8 9 10 11 10 6 2 1 2 4 4 3 3 3 3 3 2 2 2 2 2 2 2 2 3 3 3 3 3 4 4 5 5
8 8 8 8 8 8 8 8 8 7 7 7 7 7 6 4 2 1 1 2 2 2 2 2 3 2 2 2 2 3 2 2 2 2 2 2 2 2 2 4 5 5 6
10 10 10 10 9 9 8 8 7 6 5 5 5 4 4 3 2 0 1 2 2 2 2 2 2 2 1 1 2 2 2 1 1 1 2 2 2 2 2 3 5 6 6
11 11 12 11 10 9 8 7 6 6 5 5 4 4 3 3 2 1 0 1 2 2 2 2 2 1 0 0 1 1 1 1 1 1 2 2 2 2 3 3 4 5 5
11 12 13 13 11 10 9 8 6 6 5 4 4 3 3 3 2 1 0 1 1 2 2 2 2 1 0 0 0 0 0 0 0 1 1 1 2 2 3 3 4 4 4
11 13 15 17 17 15 13 11 9 7 6 4 4 4 4 3 2 1 0 0 0 1 1 1 1 0 0 0 0 0 0 0 0 1 1 1 2 2 2 3 3 3 3
12 15 18 21 23 21 18 15 12 9 7 6 5 5 5 4 3 2 1 1 1 1 1 1 1 0 0 0 0 0 0 1 1 1 1 1 2 2 2 3 3 3 3
14 15 16 19 21 19 16 13 9 7 5 6 6 6 6 5 3 2 2 2 1 1 1 1 1 1 1 1 1 1 1 1 1 1 1 1 2 2 2 3 3 3 3
14 13 13 14 14 12 9 7 5 3 3 3 3 3 3 3 2 1 1 1 1 1 2 2 2 1 1 1 1 1 1 1 1 1 1 1 2 2 2 3 3 2 2
10 10 10 10 10 8 6 4 3 3 2 2 1 1 1 1 1 1 0 0 1 1 2 2 2 2 2 2 2 1 1 1 1 1 1 1 2 2 2 2 2 2 2
8 8 8 8 8 8 7 6 5 4 3 2 1 1 0 0 0 0 0 1 1 1 2 3 3 3 2 2 2 2 1 1 1 1 1 1 1 2 2 2 2 2 2
8 8 8 7 8 8 9 8 7 6 5 4 2 1 0 0 0 0 1 2 3 2 2 3 4 4 3 2 2 2 1 1 1 1 1 1 1 2 2 2 2 1 1
7 8 7 7 7 9 10 11 10 9 7 5 3 1 0 0 0 0 1 2 2 2 2 3 3 3 2 2 1 1 1 1 1 1 1 1 1 2 2 2 1 1 1
8 8 7 7 7 8 10 11 12 11 9 6 4 1 0 0 0 0 0 1 1 1 1 1 1 1 1 1 1 1 1 1 1 1 1 1 1 1 1 1 1 1 1
8 8 7 6 6 7 8 9 10 10 8 6 4 1 0 0 0 0 0 0 0 0 0 0 0 1 1 1 1 1 1 1 1 1 1 1 1 1 1 1 1 1 1
7 7 7 5 4 4 4 5 6 6 5 4 2 1 0 0 0 0 0 0 0 0 0 0 1 1 1 1 1 1 1 1 1 1 1 1 1 1 1 1 1 1 1
6 5 5 4 3 3 2 2 3 3 3 2 1 0 0 0 0 0 0 0 0 0 0 1 1 1 1 1 1 1 1 1 1 1 1 1 1 1 1 1 1 1 0
4 4 3 2 2 2 1 1 1 1 1 1 0 0 0 0 0 0 0 0 0 0 1 1 1 1 1 1 1 1 0 0 0 0 1 1 1 1 1 1 1 0 0
3 3 2 2 1 1 1 1 1 1 1 1 0 0 0 0 0 0 0 0 0 0 1 1 1 1 0 1 0 0 0 0 0 0 0 1 1 1 1 1 1 0 0
Wind_Speed
7 6 6 6 6 6 5 4 4 3 3 3 3 3 3 2 2 2 2 2 3 3 3 2 3 3 3 3 3 3 3 4 5 4 3 2 3 4 3 3 4 4 3
7 7 6 6 6 6 5 5 4 4 4 4 4 4 3 3 2 2 3 2 3 3 3 3 3 2 3 4 3 3 3 4 5 5 4 3 3 4 4 4 4 3 3
7 7 6 6 6 5 5 4 4 4 4 4 4 4 3 3 3 2 2 2 3 3 3 3 3 3 4 3 4 4 4 4 4 5 5 3 4 3 4 5 4 3 4
7 7 6 6 5 5 5 4 4 4 4 4 4 4 4 3 3 2 2 2 2 2 3 3 3 4 4 4 4 4 4 4 4 5 5 4 3 3 3 4 4 3 3
7 7 6 6 5 4 4 4 4 4 4 4 4 4 4 3 2 1 2 2 2 2 2 3 2 2 3 4 5 4 4 4 4 4 4 4 3 3 3 4 4 3 2
7 7 6 6 5 5 5 4 4 4 4 4 4 3 3 1 3 1 2 2 2 2 3 3 2 3 3 3 3 4 5 5 5 5 4 4 4 5 4 4 4 4 3
7 7 7 7 6 6 5 5 5 4 4 4 3 3 3 2 3 2 1 3 3 3 3 3 4 1 2 3 3 5 5 5 6 6 6 6 6 5 5 5 4 5 4
7 7 7 7 6 6 5 5 5 4 4 4 4 3 3 3 3 2 2 4 3 3 3 3 3 3 3 4 4 4 4 3 4 5 5 6 6 5 5 6 5 5 5
7 7 7 7 7 6 6 5 4 4 4 4 4 4 4 4 4 3 4 4 3 3 3 3 3 3 2 4 5 4 5 4 3 4 4 5 5 6 6 5 5 4 4
7 7 7 7 6 6 5 5 4 4 4 4 4 4 4 3 4 3 4 4 3 3 3 3 2 2 2 3 5 4 5 5 5 3 4 6 6 5 5 5 5 5 5
6 6 6 6 6 6 5 4 4 4 4 4 4 4 4 4 5 4 4 5 4 4 3 3 1 3 1 3 5 4 4 6 6 6 5 4 3 3 2 3 3 4 5
5 5 6 5 5 5 5 5 5 4 5 5 4 4 4 4 3 4 5 5 5 4 4 2 2 2 2 4 4 3 5 7 5 5 4 4 3 2 2 3 3 3 3
5 5 5 5 4 4 5 4 4 4 4 4 4 4 3 3 3 5 7 6 5 4 2 2 1 3 4 5 5 5 6 5 4 4 4 3 3 2 2 2 2 2 2
4 4 4 5 4 4 3 3 3 3 3 3 3 3 2 3 3 3 4 4 5 5 3 3 5 7 7 4 4 5 4 3 4 4 4 3 3 3 3 3 3 3 2
4 4 4 4 4 3 3 1 2 1 1 2 2 2 2 3 1 1 2 2 2 1 2 3 4 3 4 3 3 3 3 3 3 4 4 4 3 3 2 2 3 3 3
4 4 3 3 3 3 3 2 3 1 3 2 1 2 1 1 2 1 1 0 0 1 3 4 4 4 4 4 4 3 3 3 3 4 4 3 3 3 3 3 3 3 3
3 3 3 3 3 3 3 3 3 3 3 3 3 3 2 3 3 3 3 2 2 3 5 4 4 4 4 4 4 3 3 3 3 4 4 3 3 3 3 3 3 3 3
4 3 3 3 3 3 3 3 3 3 3 3 4 5 6 6 5 5 5 4 3 5 5 4 4 4 4 4 4 4 3 3 3 3 3 3 3 3 3 4 3 4 4
3 2 2 2 3 3 3 3 3 3 3 2 2 4 6 6 5 5 6 4 3 3 4 3 3 4 4 4 4 4 4 4 3 4 3 4 4 4 4 4 4 3 4
2 1 2 3 3 3 3 3 3 3 2 2 2 1 2 3 3 3 4 3 3 3 3 3 3 3 4 3 3 4 4 4 4 5 4 4 4 4 4 5 4 4 4
2 2 4 4 3 2 3 3 2 2 2 2 2 1 2 3 3 3 3 3 3 3 3 3 3 3 4 3 4 4 5 5 4 4 4 4 4 4 4 4 5 5 4
2 2 2 2 2 2 3 3 2 2 2 3 2 3 4 4 3 3 3 3 4 3 3 3 3 3 4 4 4 4 4 4 4 4 4 4 4 5 5 5 5 4 4
3 3 2 2 3 2 3 3 2 2 3 3 2 2 3 3 3 3 3 3 3 3 3 3 4 4 4 4 4 4 4 4 3 4 5 5 5 4 4 5 6 6 5
3 3 2 2 2 2 3 3 2 2 3 3 3 3 3 3 3 3 4 4 4 4 4 4 4 5 5 4 3 3 3 3 4 3 5 5 5 5 5 5 5 6 6
2 2 2 2 2 2 3 3 3 3 3 3 3 3 3 3 4 4 4 4 5 4 4 5 4 4 5 5 4 4 2 2 4 5 4 4 5 6 6 6 5 5 5
2 2 2 2 2 2 3 3 3 3 3 3 3 3 3 4 4 4 4 4 4 4 4 4 5 5 6 5 4 2 0 1 2 5 6 5 6 6 6 5 6 5 5
Wind_Direction
182 188 192 193 199 202 211 215 215 218 214 220 225 228 231 232 231 241 267 267 271 280 283 275 275 293 286 281 283 288 286 282 279 288 296 303 287 283 283 268 257 249 207
182 186 193 197 200 202 202 209 209 210 214 213 222 225 228 225 229 237 253 271 277 280 280 276 271 270 279 287 292 287 285 284 277 282 289 286 271 266 269 268 262 253 256
180 186 190 198 199 202 205 206 206 204 211 220 221 221 220 217 222 231 247 259 272 283 279 273 275 281 282 291 287 286 281 276 276 276 278 284 276 277 276 266 268 269 263
184 187 191 199 199 197 198 201 205 207 211 217 219 218 217 219 221 223 240 268 283 295 292 281 280 282 283 285 277 278 285 287 274 274 280 280 277 280 273 275 273 254 267
186 191 191 193 195 198 197 202 206 212 213 210 217 215 215 215 211 209 237 234 270 289 293 285 282 308 327 304 303 305 292 284 282 281 285 288 298 305 296 292 285 281 274
186 190 187 190 192 195 198 200 203 207 215 213 219 216 218 218 81 63 275 258 257 264 276 285 264 229 228 229 276 305 307 291 297 295 290 300 306 303 305 295 298 290 284
186 187 187 189 190 194 199 194 200 204 207 209 210 208 202 144 129 154 245 261 254 262 272 276 279 304 276 271 236 226 243 251 263 281 292 297 301 308 305 292 292 291 292
187 187 189 191 190 191 196 196 201 203 203 204 204 199 193 164 154 178 223 239 249 254 259 269 282 294 311 314 292 287 283 271 255 255 281 289 298 307 295 283 279 272 265
190 190 191 191 191 192 194 194 197 199 204 211 201 197 199 180 172 194 242 244 238 247 250 254 267 277 339 315 281 280 286 284 236 231 266 278 297 296 290 281 272 268 273
197 193 189 190 191 193 193 196 195 200 207 214 202 207 206 196 170 199 248 250 239 241 234 224 196 271 320 301 278 282 285 296 301 281 248 244 253 248 233 256 277 276 277
199 189 186 189 193 189 186 190 193 200 199 208 206 210 205 192 175 196 241 259 253 247 245 242 142 125 230 279 280 283 301 302 289 280 276 277 272 279 273 267 280 283 286
189 187 186 188 196 181 182 189 193 196 195 197 204 212 201 185 181 189 212 250 285 256 256 256 97 116 260 275 276 297 293 281 274 277 280 285 287 292 308 310 303 295 298
191 187 182 182 188 184 188 190 194 201 214 211 210 214 211 191 174 182 197 221 249 257 269 63 116 208 241 240 233 257 265 262 273 279 283 291 301 311 300 281 268 250 256
190 183 180 183 187 182 197 200 205 215 230 230 229 230 223 205 212 199 199 203 207 218 224 173 196 217 235 254 241 236 251 279 289 286 291 297 298 287 282 296 296 285 278
192 190 190 190 186 185 196 208 230 235 274 261 263 251 246 233 191 349 276 243 253 283 262 243 248 241 240 241 247 258 265 259 263 272 276 277 280 289 297 299 300 296 290
194 202 205 199 185 190 184 170 84 129 114 130 226 263 214 106 138 179 220 343 245 204 246 245 255 264 267 267 266 259 259 269 280 283 281 284 287 290 289 289 290 286 284
209 206 215 208 198 204 206 203 182 150 143 158 164 171 178 163 174 188 182 173 199 201 232 250 256 261 264 266 267 269 265 272 282 278 277 280 284 284 287 288 288 286 284
218 201 221 215 218 217 215 213 213 209 192 178 175 180 176 175 185 191 178 186 210 215 242 256 262 264 264 265 266 269 269 265 257 263 269 275 277 278 281 280 280 291 292
228 224 224 244 239 229 225 227 228 221 210 192 178 160 166 170 176 186 191 223 240 243 250 257 264 268 266 262 261 262 264 266 266 267 268 272 275 274 276 276 273 266 273
220 208 238 243 240 233 230 234 235 225 220 210 207 181 154 194 209 188 205 234 248 253 257 261 268 278 280 277 274 271 267 260 255 254 262 267 268 268 266 266 269 264 261
226 196 213 239 243 238 242 241 238 236 232 225 219 152 178 238 241 231 231 239 251 257 261 268 270 270 266 263 266 268 274 276 270 268 266 263 265 265 266 265 263 263 266
258 245 234 241 243 242 247 244 240 243 249 245 235 173 183 235 243 246 246 245 246 250 256 259 261 267 272 269 267 266 269 278 281 280 277 274 267 265 265 267 271 270 264
251 246 242 241 238 230 237 237 233 237 246 244 239 225 213 237 242 246 253 261 260 258 256 256 262 268 269 266 270 272 275 278 286 295 293 288 281 276 271 267 266 270 268
261 257 252 249 244 241 242 242 237 237 239 234 234 233 231 233 241 248 256 260 260 259 260 259 258 262 267 273 274 273 280 300 295 279 280 282 284 283 276 269 265 262 261
251 253 254 254 255 256 255 254 246 239 243 242 238 240 241 240 243 244 247 250 252 253 256 261 257 257 262 267 274 288 351 344 303 297 264 266 271 273 275 274 271 267 262
251 251 249 250 251 250 250 253 255 253 250 249 246 246 248 245 246 248 249 251 253 252 253 257 262 268 267 260 263 289 42 252 265 287 279 264 266 268 273 275 278 271 265